Regional Weather Roundup
Issued by NWS

Home | Current Version | Previous Version | Text Only | Print | Product List | Glossary On
Versions: 1 2 3 4 5 6 7 8 9 10 11 12 13 14 15 16 17 18 19 20 21 22 23 24 25 26 27 28 29 30 31 32 33 34 35 36 37 38 39 40 41 42 43 44 45 46 47 48 49 50
000
ASUS43 KDMX 221501
RWRIA

WEATHER ROUNDUP FOR IOWA
NATIONAL WEATHER SERVICE DES MOINES IA
1000 AM CDT MON MAY 22 2017

NOTE: "FAIR" INDICATES FEW OR NO CLOUDS BELOW 12,000 FEET WITH NO
SIGNIFICANT WEATHER AND/OR OBSTRUCTIONS TO VISIBILITY.

* - THESE STATIONS ARE NOT NWS STATIONS...THUS NOT UNDER NWS
QUALITY CONTROL.  THEY ALSO DO NOT REPORT WEATHER SUCH
AS PRECIPITATION OR FOG.

IAZ001>003-012>014-020>022-031>034-043>046-221600-
   NORTHWEST IOWA

CITY           SKY/WX    TMP DP  RH WIND       PRES   REMARKS
CARROLL *      SUNNY     63  52  67 W13       29.91R
CHEROKEE *     SUNNY     61  52  72 W8        29.90S
DENISON *      SUNNY     63  48  59 W10       29.94S
LE MARS *      SUNNY     61  50  67 W10       29.91F
ORANGE CITY *  SUNNY     59  54  82 W10       29.90S
SHELDON *      SUNNY     59  50  72 W10         N/A
SIOUX CITY     SUNNY     63  51  65 W10       29.91S
SPENCER        SUNNY     60  50  69 NW8       29.89S
STORM LAKE *   SUNNY     61  50  67 W14       29.90S
$$

IAZ055>058-069>071-079>083-090>094-221600-
   SOUTHWEST IOWA

CITY           SKY/WX    TMP DP  RH WIND       PRES   REMARKS
ATLANTIC *     PTSUNNY   61  52  72 SW15      29.94S
AUDUBON *      SUNNY     63  52  67 W8        29.94S
CLARINDA *     CLOUDY    61  55  82 SW8       29.99F
COUNCIL BLFS * MOSUNNY   63  54  72 SW5       29.95F
CRESTON *      PTSUNNY   57  52  82 SW15      29.98S
HARLAN  *      SUNNY     63  50  63 W13       29.97S
LAMONI         CLOUDY    58  51  78 SW15      30.00R
RED OAK *      CLOUDY    63  55  77 SW9G16    29.96F
SHENANDOAH *   PTSUNNY   63  55  77 SW12      29.97F
$$

IAZ047>049-059>061-072>074-084-221600-
   CENTRAL IOWA

CITY           SKY/WX    TMP DP  RH WIND       PRES   REMARKS
AMES           MOSUNNY   61  51  70 SW15      29.91F
ANKENY *       MOSUNNY   63  50  63 SW12      29.93S
BOONE *        MOSUNNY   63  50  63 W16G24    29.90S
DES MOINES     PTSUNNY   64  51  62 SW9       29.92F
GRINNELL*      PTSUNNY   60  48  63 S14       29.94F
MARSHALLTOWN   CLOUDY    61  51  70 SW15G24   29.92F
NEWTON *       PTSUNNY   63  48  59 SW18G28   29.91F
PELLA *        CLOUDY    65  48  55 S12G23    29.95F
PERRY *          N/A     63  53  70 W15       29.92S
$$

IAZ004>006-015-016-023>025-035-036-221600-
   NORTH CENTRAL IOWA

CITY           SKY/WX    TMP DP  RH WIND       PRES   REMARKS
ALGONA *       SUNNY     59  52  77 SW15      29.89S
CLARION *      MOSUNNY   59  54  82 SW13      29.89F
ESTHERVILLE    MOSUNNY   58  50  75 W10       29.88S
FORT DODGE *   SUNNY     61  52  72 SW9       29.89F
MASON CITY     MOSUNNY   55  50  83 VRB6      29.91S
FOREST CITY *    N/A     59  46  63 S9        29.89S
WEBSTER CITY * SUNNY     61  50  67 SW12      29.87F
IOWA FALLS *     N/A     59  50  72 SW10      29.92F
$$

IAZ007>011-017>019-026>030-037>042-050>054-066-221600-
   NORTHEAST IOWA

CITY           SKY/WX    TMP DP  RH WIND       PRES   REMARKS
CEDAR RAPIDS   LGT RAIN  54  48  80 CALM      29.96F
CHARLES CITY * CLOUDY    50  50 100 S12       29.90F
CLINTON *      CLOUDY    60  50  69 SW12      30.00F
DECORAH *      CLOUDY    52  46  82 VRB6      29.91F
DUBUQUE        CLOUDY    54  47  77 SW12      29.97F
MONTICELLO *   CLOUDY    57  48  72 SW8       29.97F
OELWEIN *      LGT RAIN  50  50 100 SW9       29.96S
WATERLOO       CLOUDY    52  49  89 SE5       29.93F
$$

IAZ064-065-067-068-078-221600-
   EAST CENTRAL IOWA

CITY           SKY/WX    TMP DP  RH WIND       PRES   REMARKS
DAVENPORT      MOSUNNY   63  49  60 SW15      29.99F
IOWA CITY      CLOUDY    64  48  56 SW14      29.98F
MT. PLEASANT * MOSUNNY   65  49  56 SW18      30.00F
MUSCATINE *    SUNNY     66  48  52 SW21      29.98F
QUAD CITIES    MOSUNNY   66  47  50 SW18G25   29.99F
$$

IAZ062-063-075>077-085>089-095>099-221600-
   SOUTHEAST IOWA

CITY           SKY/WX    TMP DP  RH WIND       PRES   REMARKS
BURLINGTON     SUNNY     65  50  58 S20G26    30.01F
FAIRFIELD *    SUNNY     66  48  52 SW18      29.98F
FORT MADISON * SUNNY     66  52  59 S14G21    30.02F
KEOKUK *       SUNNY     66  50  55 SW17G23   30.02F
OSKALOOSA *    CLOUDY    62  49  61 SW15      29.96F
OTTUMWA        CLOUDY    63  47  55 SW14      29.97F
WASHINGTON *   PTSUNNY   64  50  59 SW16G23   29.99F
$$

ABBREVIATIONS USED IN REMARKS
   TC - TEMPERATURES IN CELSIUS
  WCI - WIND CHILL INDEX
   HX - HEAT INDEX
  VSB - VISIBILITY
$$




USA.gov is the U.S. government's official web portal to all federal, state and local government web resources and services.